Preview of NWS' New Version of Forecast
This preview is not operational and should not be used for support decisions.

Regional Weather Roundup (RWR)

Issued by National Weather Service (NWS)

                            
000
ASUS43 KDTX 181301
RWRMI 
MICHIGAN HOURLY REGIONAL WEATHER ROUNDUP
NATIONAL WEATHER SERVICE DETROIT/PONTIAC MI
900 AM EDT TUE JUN 18 2019

NOTE: "FAIR" INDICATES FEW OR NO CLOUDS BELOW 12,000 FEET WITH NO
SIGNIFICANT WEATHER AND/OR OBSTRUCTION TO VISIBILITY.

MIZ047>049-052>055-059>063-066>070-074>076-081>083-181400-
SOUTHEAST LOWER MICHIGAN
  
CITY           SKY/WX    TMP DP  RH WIND       PRES   REMARKS
ADRIAN         FAIR      67  57  70 E5        29.99R                  
ALMA           FAIR      66  63  90 CALM      29.99S                  
ANN ARBOR      CLOUDY    64  58  80 CALM      29.98R                  
BAD AXE        FAIR      63  53  68 CALM      29.99R                  
CARO           FAIR      67  57  69 CALM      29.98S                  
DETROIT CITY   PTSUNNY   63  52  67 CALM      29.99R                  
DETROIT        CLOUDY    64  52  64 CALM      29.99R                  
FLINT          CLOUDY    67  57  70 CALM      29.98S                  
GROSSE ILE     CLOUDY    62  55  78 CALM      29.98R                  
HILLSDALE      FAIR      64  60  86 N3        29.98S                  

CITY           SKY/WX    TMP DP  RH WIND       PRES   REMARKS
JACKSON        CLOUDY    62  62 100 CALM      29.99R                  
LANSING        FAIR      68  61  78 CALM      29.99R                  
LAPEER         FAIR      65  56  70 CALM      29.99S                  
MONROE         CLOUDY    65  62  91 CALM      29.98R                  
MT. CLEMENS    CLOUDY    62  59  90 CALM      29.98R                  
PONTIAC        CLOUDY    64  56  75 SE3       29.97R                  
PORT HOPE        N/A     56  51  84 E5        29.98R                  
TRI CITIES     FAIR      65  61  87 CALM      29.99R                  
MIDLAND        FAIR      61  55  82 CALM      29.99R                  
TROY           CLOUDY    64  51  63 CALM      30.00S                  
SAGINAW HB     FAIR      68  61  77 CALM      29.98S                  
$$
MIZ043>046-050>051-056>058-064>065-071>073-077>080-181400-
SOUTHWEST LOWER MICHIGAN
  
CITY           SKY/WX    TMP DP  RH WIND       PRES   REMARKS
BATTLE CREEK   FAIR      68  63  84 NE5       29.98S                  
BENTON HARBOR  FAIR      67  60  78 E5        29.97S                  
BIG RAPIDS     CLOUDY    60  57  91 CALM      29.99R                  
COLDWATER      FAIR      64  64 100 CALM      29.98S                  
FREMONT        PTSUNNY   63  55  77 CALM      29.98S                  
HOLLAND        CLOUDY    66  59  78 CALM      29.98S                  
GRAND RAPIDS   PTSUNNY  N/A N/A N/A MISG      29.98S                  
IONIA          CLOUDY    65  60  84 N5        29.98S                  
KALAMAZOO      PTSUNNY   68  61  78 CALM      29.97F                  
LUDINGTON      FAIR      57  49  73 CALM      29.97F                  
MARSHALL       FAIR      67  67 100 CALM      29.98R                  
MOUNT PLEASANT FAIR      62  61  97 CALM      29.98S                  
MUSKEGON       CLOUDY    65  56  72 S6        29.98S                  
SOUTH HAVEN    CLOUDY    65  61  88 CALM      29.98S                  
$$
MIZ016>042-181400-
NORTHERN LOWER MICHIGAN
  
CITY           SKY/WX    TMP DP  RH WIND       PRES   REMARKS
ALPENA         FAIR      59  51  75 SE3       29.98F                  
BEAVER ISLAND  FAIR      58  50  75 S5        29.98S                  
BELLAIRE       CLOUDY    59  51  74 CALM      29.98S                  
CADILLAC       PTSUNNY   64  55  73 CALM      29.98S                  
CHARLEVOIX     CLOUDY    59  50  72 W3        30.00S                  
GAYLORD        FAIR      60  51  72 W6        29.98S                  
HARBOR SPRINGS CLOUDY    58  54  85 CALM      29.97S                  
HOUGHTON LAKE  FAIR      61  54  77 W6        29.99R                  
MANISTEE       FAIR      57  50  77 CALM      29.98S                  
OSCODA         FAIR      55  51  86 CALM      29.98S                  
PELLSTON       CLOUDY    60  54  80 SE5       29.96S                  
ROGERS CITY    FAIR      62  54  73 CALM      29.99R                  
TRAVERSE CITY  CLOUDY    61  52  72 CALM      29.97S                  
$$
MIZ007>008-015-181400-
EASTERN UPPER MICHIGAN
  
CITY           SKY/WX    TMP DP  RH WIND       PRES   REMARKS
KINROSS        CLOUDY    58  50  75 CALM      29.97R                  
S. S. MARIE    PTSUNNY   59  52  77 E3        29.96S                  
MUNISING         N/A     54  49  83 CALM      29.94S                  
$$
MIZ004>006-011>014-085-181400-
CENTRAL UPPER MICHIGAN
  
CITY           SKY/WX    TMP DP  RH WIND       PRES   REMARKS
MANISTIQUE     FAIR      56  53  89 CALM      29.95S                  
ESCANABA       PTSUNNY   59  55  87 SW5       29.95S                  
MENOMINEE      FAIR      62  59  90 SE5       29.95F                  
SAWYER-GWINN   PTSUNNY   59  54  82 SW9       29.94F                  
$$
MIZ001>003-009>011-084-181400-
WESTERN UPPER MICHIGAN
  
CITY           SKY/WX    TMP DP  RH WIND       PRES   REMARKS
IRON MOUNTAIN  PTSUNNY   60  57  89 CALM      29.93F                  
HOUGHTON       FAIR      54  45  71 CALM      29.93F                  
COPPER HARBOR    N/A     45  43  93 CALM      29.94F                  
IRONWOOD       CLOUDY    54  52  93 W3        29.96S                  
$$

ABBREVIATIONS USED IN REMARKS
   TC - TEMPERATURE IN CELSIUS
  WCI - WIND CHILL INDEX
   HX - HEAT INDEX
  VSB - VISIBILITY